Regional Weather Roundup
Issued by NWS

Home | Current Version | Previous Version | Text Only | Print | Product List | Glossary On
Versions: 1 2 3 4 5 6 7 8 9 10 11 12 13 14 15 16 17 18 19 20 21 22 23 24 25 26 27 28 29 30 31 32 33 34 35 36 37 38 39 40 41 42 43 44 45 46 47 48 49 50
000
ASHW40 PHFO 280732
RWRHI

WEATHER ROUNDUP FOR HAWAII
NATIONAL WEATHER SERVICE HONOLULU HI
900 PM HST TUE JUN 27 2017

THIS IS AN AUTOMATED REPORT THAT HAS NOT BEEN QUALITY CONTROLLED.

NOTE..."FAIR" INDICATES FEW OR NO CLOUDS BELOW 12,000 FEET WITH NO
SIGNIFICANT WEATHER AND/OR OBSTRUCTIONS TO VISIBILITY.

* - THESE SITES REPORT LIMITED FIELDS

HIZ001>004-280800-
KAUAI-NIIHAU-

CITY           SKY/WX    TMP DP  RH WIND       PRES   REMARKS
LIHUE APT      CLEAR     79  67  66 NE17      30.11R
PORT ALLEN*    NOT AVBL
POIPU*         NOT AVBL
PRINCEVILLE*   NOT AVBL
KOKOLE POINT*  NOT AVBL
MOLOAA DAIRY*    N/A     77  63  61 E6G14       N/A
WAIMEA HTS*    NOT AVBL
PUU OPAE*      NOT AVBL
PUU LUA*       NOT AVBL
MAKAHA RIDGE*    N/A     72  64  78 SW1         N/A
$$

HIZ005>011-280800-
OAHU-

CITY           SKY/WX    TMP DP  RH WIND       PRES   REMARKS
HONOLULU       PTCLDY    79  65  62 E16       30.07S
KALAELOA       PTCLDY    78  65  63 NE7       30.08S
KANEOHE MCB    MOCLDY    80  68  66 E10G23    30.07
WHEELER FIELD  MOCLDY    75  66  73 CALM      30.08R
BELLOWS*       NOT AVBL
KAHUKU*        NOT AVBL
WHEELER*       NOT AVBL
WAIANAE HARBOR NOT AVBL
DILLINGHAM*      N/A     77  66  69 NW1G7       N/A
KAHUKU TRN*      N/A     75  68  78 W9G18       N/A
KAWAILOA*        N/A     72  64  78 E3G16       N/A
KII*             N/A     79  72  78 E20G26      N/A
MAKUA RANGE*     N/A     88  75  66 W7          N/A  HX  97
OAHU FOREST NW NOT AVBL
SCHOFIELD BRK*   N/A     66  57  72 S1          N/A
SCHOFIELD S*   NOT AVBL
WAIANAE VLY*   NOT AVBL
KUAOKALA*      NOT AVBL
HONOULIUULI*   NOT AVBL
MOKUOLOE IS*   NOT AVBL
PALEHUA*       NOT AVBL
WAIAWA PHB*    NOT AVBL
$$

HIZ012>013-280800-
MOLOKAI-

CITY           SKY/WX    TMP DP  RH WIND       PRES   REMARKS
MOLOKAI AIRPT  CLEAR     77  66  68 NE13G21   30.09R
KALAUPAPA      NOT AVBL
MAKAPULAPAI*     N/A     79  66  65 E17G26      N/A
MOLOKAI 1*     NOT AVBL
PUU ALII*      NOT AVBL
$$

HIZ016-280800-
KAHOOLAWE-

CITY           SKY/WX    TMP DP  RH WIND       PRES   REMARKS
KAHOOLAWE*     NOT AVBL
HAKIOAWA*        N/A     73  65  77 MISG        N/A
HONOKANAIA*      N/A     79  67  65 NE13G26     N/A
KANELOA*         N/A     73  64  73 E15G30    30.13R
KEALIALALO*    NOT AVBL
LUA MAKIKA*    NOT AVBL
$$

HIZ014>015-280800-
LANAI-

CITY           SKY/WX    TMP DP  RH WIND       PRES   REMARKS
LANAI CITY     FAIR      71  65  81 NE15      30.12S
LANAI 1*       NOT AVBL
$$

HIZ017>028-280800-
MAUI-

CITY           SKY/WX    TMP DP  RH WIND       PRES   REMARKS
KAHULUI        PTCLDY    77  65  66 NE15G23   30.06R
KAPALUA-W MAUI NOT AVBL
HANA AIRPORT   CLOUDY    77  68  73 SE3       30.13S
HANA*            N/A     79 N/A N/A E7G13       N/A
HALEAKALA SUMM   N/A     46  16  29 E28         N/A
MAALAEA BAY*   NOT AVBL
HALEAKALA*     NOT AVBL
KAUPO GAP*     NOT AVBL
KULA 1*          N/A     56  34  44 E3          N/A
$$

HIZ023>026-280800-
BIG ISLAND OF HAWAII COAST AND LOWER SLOPES-

CITY           SKY/WX    TMP DP  RH WIND       PRES   REMARKS
KAILUA KONA    CLOUDY    82  70  66 SE6       30.02R
HILO           CLOUDY    75  69  81 W6        30.09S
HONOKAA*         N/A     72 N/A N/A VRB1        N/A
KAWAIHAE MWT*    N/A     81 N/A N/A E14G24      N/A
KAWAIHAE*        N/A     82 N/A N/A SE5       30.03R
SOUTH POINT*     N/A     73 N/A N/A VRB18G28    N/A
UPOLU AIRPORT* NOT AVBL
KAMUELA*         N/A     66  63  88 NE17      30.17R
HAKALAU*         N/A     46  34  61 W6          N/A
KALOKO-HONOKO*   N/A     81  70  69 E7        30.02R
PALI 2*          N/A     66  61  82 S13G23      N/A
KEALAKOMO*       N/A     79  66  65 NE16G22     N/A
KAUPULEHU*     NOT AVBL
KAPAPALA*        N/A     65  65  99 W3          N/A
LOWER KAHUKU*  NOT AVBL
PUHE CS*         N/A     81  59  47 E12G29      N/A
PUHO CS*       NOT AVBL
PTA KEAMUKU*   NOT AVBL
WAIKOLOA*      NOT AVBL
$$

HIZ027>028-280800-
BIG ISLAND OF HAWAII INTERIOR AND SUMMMITS-

CITY           SKY/WX    TMP DP  RH WIND       PRES   REMARKS
BRADSHAW FIELD CLEAR     55  44  68 CALM      30.38R
MK VISITOR CEN   N/A     54 -17   5 N8          N/A
MAUNA KEA*       N/A     36 -17  10 NE26        N/A  WCI  23
MAUNA LOA*       N/A     50 -24   4 MISG        N/A
MAUNA LOA 1*   NOT AVBL
PTA KIPUKA*      N/A     75  75 100 E1          N/A
PTA RANGE 17*    N/A     59  41  51 E10G16      N/A
PTA WEST*        N/A     59  57  94 CALM        N/A
NENE CABIN*      N/A    N/A N/A N/A NE7         N/A
AHUMOA*        NOT AVBL
PTA PORTABLE*  NOT AVBL
PUU MALI*        N/A     63 N/A N/A E16G22      N/A
$$

HIC003-280800-
NORTHWEST ISLANDS-

CITY           SKY/WX    TMP DP  RH WIND       PRES   REMARKS
MIDWAY ISLAND  CLEAR     75  68  78 E8        30.14R
MIDWAY NOS*      N/A     77 N/A N/A MISG      30.13R
FRENCH FRIGATE NOT AVBL
$$

PHZ110>124-180-280800-
BUOY REPORTS

STATION/POSITION TIME  TEMP    WIND        PRES    WAVE   SWELL
                       AIR SEA DIR/SP/G            HT/PER HT/DIR
                 (UTC) (F)     (DEG/KT/KT) (MB)    (FT/S) (FT/D)
BUOY 51001       0710   80 81  100/ 14/ 17 1020.0
BUOY 51101       0650   80 81  100/ 14/ 16 1020.1R   5/ 7   5/ 90
BUOY 51100       NOT AVBL
BUOY 51002       0710   79 79   80/ 17/ 21 1015.8
BUOY 51003       0650   80 80   70/ 12/ 14 1016.7R   7/ 7   7/100
BUOY 51004       0650      79   50/ 17/ 21 1016.2S   7/ 7   5/ 60
BARBERS PT BUOY  NOT AVBL
WAIMEA BAY BUOY  0702      78                N/A     4/11   2/ 40
KAILUA BAY BUOY  0704      80                N/A     7/11   3/ 60
LANAI BUOY       NOT AVBL
BARBERS PT 2     NOT AVBL
PAUWELA MAUI     0639      78                N/A     6/11   3/ 50
HILO             0657      79                N/A     7/11   3/ 40
KANEOHE BAY BUOY 0655      79                N/A     6/11   3/ 50
HANALEI KAUAI    0652      80                N/A     6/11   2/ 50
KAHULUI HARBOR   0700   78 80   40/ 13/ 19 1018.3
HONOLULU HARBOR  0700   79 80   50/  3/  6 1019.1
KILO NALU        NOT AVBL
HILO HARBOR      0700   76 79  240/  2/  3 1018.9
MOKUOLOE         0636   80 82   90/ 12/ 18 1018.9R
NAWILIWILI       0700   79      60/ 10/ 14 1019.1
WHOTS BUOY       NOT AVBL
BUOY 51028       NOT AVBL
$$

......................KEY........................................
  SKY/WX - SKY CONDITIONS/PRESENT WEATHER
  TMP    - TEMPERATURE IN FAHRENHEIT
  DWPT   - DEWPOINT IN FAHRENHEIT
  RH     - RELATIVE HUMIDITY IN PERCENT
  WIND   - DIRECTION AND SPEED /MPH FOR ISLANDS...KTS FOR BUOYS/
  PRES   - MEAN SEA LEVEL PRESSURE IN INCHES OF HG
  VSB    - VISIBILITY IN MILES
  HX     - HEAT INDEX
  WCI    - WIND CHILL INDEX
  VRB    - VARIABLE WIND DIRECTION
  N/A    - NOT AVAILABLE




USA.gov is the U.S. government's official web portal to all federal, state and local government web resources and services.